Date,TemperatureHighF,TemperatureAvgF,TemperatureLowF,DewpointHighF,DewpointAvgF,DewpointLowF,HumidityHigh,HumidityAvg,HumidityLow,PressureMaxIn,PressureMinIn,WindSpeedMaxMPH,WindSpeedAvgMPH,GustSpeedMaxMPH,PrecipitationSumIn
2013-5-11,58.2,46.2,38.5,50.1,42.3,36.7,94,87,68,29.90,29.73,23,5,23,0.00
2013-5-12,47.4,40.7,35.3,37.3,33.3,27.3,97,76,51,30.10,29.85,21,5,21,0.00
2013-5-13,51.9,41.8,30.9,34.5,29.3,25.6,91,64,39,30.19,30.10,15,2,15,0.00
2013-5-14,60.4,50.8,42.3,48.2,42.7,34.2,89,75,54,30.14,29.78,14,4,14,0.00
2013-5-15,52.7,51.6,50.7,49.8,48.5,46.3,92,89,80,29.82,29.67,10,2,10,0.02
2013-5-16,76.0,66.4,49.3,51.2,44.5,40.4,77,47,31,30.10,29.91,10,4,10,0.00
2013-5-17,67.1,55.4,44.9,50.3,44.9,42.2,94,69,43,30.23,30.10,11,2,11,0.00
2013-5-18,76.5,63.7,53.2,53.0,47.5,43.2,78,58,33,30.22,30.10,11,2,11,0.00
2013-5-19,81.5,68.6,54.2,66.4,57.7,47.1,85,69,51,30.11,29.95,13,2,13,0.00
2013-5-20,85.5,72.4,59.3,71.8,63.6,58.4,100,76,45,30.00,29.83,19,3,19,0.00
2013-5-21,81.5,73.9,65.7,69.7,63.5,56.8,95,72,44,29.88,29.77,14,3,14,0.09
2013-5-22,77.4,69.4,64.6,67.2,64.1,57.8,97,84,54,29.80,29.66,21,4,21,0.04
2013-5-23,64.6,51.0,40.1,62.3,50.2,38.5,100,97,88,30.15,29.71,18,5,18,0.18
2013-5-24,52.2,43.0,36.9,40.2,37.3,33.6,98,82,55,30.38,30.15,20,5,20,0.00
2013-5-25,61.9,48.6,33.8,44.8,37.9,31.0,100,71,37,30.42,30.32,13,2,13,0.00
2013-5-26,66.0,52.3,38.4,42.2,37.2,31.3,94,60,34,30.37,30.29,13,2,13,0.00
2013-5-27,65.6,51.2,37.3,51.3,42.2,34.1,100,75,37,30.31,30.08,13,2,13,0.19
2013-5-28,69.8,58.4,49.4,69.1,58.3,49.3,100,100,97,30.08,29.85,10,0,10,0.90
2013-5-29,81.8,71.4,63.0,69.1,65.9,60.1,100,85,48,30.04,29.78,16,2,16,0.23
2013-5-30,84.5,71.0,63.5,72.2,66.9,61.6,100,88,50,30.12,30.04,33,2,33,0.21
2013-5-31,80.7,71.7,65.7,70.5,67.7,65.6,100,88,64,30.06,29.91,19,4,19,0.59